• In Uzbekistan
  • List of Countries
  • For 7 days
  • Water Temperature
  • Weather Map
  • Weather Widgets
  • user-avatar
    Login

    Hourly Weather Nha Trang

    Today, 16 September, Monday

    Time Temperature Precipitation Wind Pressure Humidity
    00:00 +26°C° 0 mm 2 mps 746 mmHg 92%
    01:00 +26°C° 0 mm 1 mps 745 mmHg 90%
    02:00 +26°C° 0 mm 1 mps 745 mmHg 89%
    03:00 +26°C° 0 mm 1 mps 745 mmHg 89%
    04:00 +25°C° 0 mm 1 mps 745 mmHg 88%
    05:00 +26°C° 0 mm 1 mps 745 mmHg 86%
    06:00 +26°C° 0 mm 1 mps 746 mmHg 84%
    07:00 +27°C° 0 mm 1 mps 746 mmHg 82%
    08:00 +29°C° 0 mm 1 mps 746 mmHg 75%
    09:00 +30°C° 0 mm 1 mps 746 mmHg 68%
    10:00 +32°C° 0 mm 1 mps 746 mmHg 61%
    11:00 +32°C° 0.3 mm 2 mps 745 mmHg 64%
    12:00 +32°C° 0.3 mm 2 mps 745 mmHg 68%
    13:00 +31°C° 0.3 mm 3 mps 744 mmHg 72%
    14:00 +31°C° 1 mm 3 mps 744 mmHg 76%
    15:00 +30°C° 1 mm 2 mps 743 mmHg 80%
    16:00 +29°C° 1 mm 2 mps 743 mmHg 84%
    17:00 +29°C° 0.5 mm 2 mps 744 mmHg 85%
    18:00 +28°C° 0.5 mm 1 mps 744 mmHg 86%
    19:00 +27°C° 0.5 mm 1 mps 745 mmHg 87%
    20:00 +27°C° 0.3 mm 1 mps 745 mmHg 88%
    21:00 +27°C° 0.3 mm 1 mps 746 mmHg 89%
    22:00 +27°C° 0.3 mm 1 mps 746 mmHg 90%
    23:00 +26°C° 0.9 mm 1 mps 746 mmHg 91%

    Tomorrow, 17 September, Tuesday

    Time Temperature Precipitation Wind Pressure Humidity
    00:00 +26°C° 0.9 mm 2 mps 745 mmHg 91%
    01:00 +26°C° 0.9 mm 2 mps 745 mmHg 92%
    02:00 +26°C° 1 mm 2 mps 745 mmHg 92%
    03:00 +26°C° 1 mm 2 mps 745 mmHg 92%
    04:00 +26°C° 1 mm 2 mps 745 mmHg 92%
    05:00 +26°C° 0.1 mm 2 mps 745 mmHg 92%
    06:00 +26°C° 0.1 mm 1 mps 745 mmHg 91%
    07:00 +26°C° 0.1 mm 1 mps 746 mmHg 90%
    08:00 +28°C° 0.1 mm 1 mps 746 mmHg 85%
    09:00 +29°C° 0.1 mm 1 mps 746 mmHg 80%
    10:00 +30°C° 0.1 mm 1 mps 747 mmHg 75%
    11:00 +30°C° 0.8 mm 1 mps 746 mmHg 77%
    12:00 +30°C° 0.8 mm 2 mps 745 mmHg 79%
    13:00 +30°C° 0.8 mm 2 mps 745 mmHg 81%
    14:00 +30°C° 0.7 mm 2 mps 745 mmHg 82%
    15:00 +29°C° 0.7 mm 2 mps 744 mmHg 84%
    16:00 +29°C° 0.7 mm 1 mps 744 mmHg 85%
    17:00 +28°C° 0.7 mm 1 mps 745 mmHg 86%
    18:00 +28°C° 0.7 mm 1 mps 745 mmHg 87%
    19:00 +25°C° 0.7 mm 0 mps 746 mmHg 88%
    20:00 +27°C° 0.5 mm 1 mps 746 mmHg 88%
    21:00 +27°C° 0.5 mm 1 mps 747 mmHg 89%
    22:00 +27°C° 0.5 mm 1 mps 747 mmHg 89%
    23:00 +27°C° 0.8 mm 1 mps 747 mmHg 90%

    Day after tomorrow, 18 September, Wednesday

    Time Temperature Precipitation Wind Pressure Humidity
    00:00 +27°C° 0.8 mm 1 mps 746 mmHg 92%
    01:00 +26°C° 0.8 mm 2 mps 746 mmHg 93%
    02:00 +26°C° 1.5 mm 2 mps 745 mmHg 93%
    03:00 +26°C° 1.5 mm 2 mps 745 mmHg 93%
    04:00 +26°C° 1.5 mm 2 mps 745 mmHg 93%
    05:00 +26°C° 1.5 mm 2 mps 746 mmHg 93%
    06:00 +26°C° 1.5 mm 2 mps 746 mmHg 93%
    07:00 +26°C° 1.5 mm 2 mps 746 mmHg 93%
    08:00 +27°C° 0.3 mm 1 mps 747 mmHg 91%
    09:00 +27°C° 0.3 mm 1 mps 747 mmHg 90%
    10:00 +27°C° 0.3 mm 1 mps 747 mmHg 88%
    11:00 +28°C° 0.4 mm 2 mps 746 mmHg 85%
    12:00 +29°C° 0.4 mm 2 mps 746 mmHg 82%
    13:00 +30°C° 0.4 mm 2 mps 745 mmHg 79%
    14:00 +30°C° 1.2 mm 2 mps 745 mmHg 82%
    15:00 +29°C° 1.2 mm 2 mps 745 mmHg 85%
    16:00 +29°C° 1.2 mm 2 mps 745 mmHg 87%
    17:00 +28°C° 1.6 mm 2 mps 746 mmHg 88%
    18:00 +28°C° 1.6 mm 2 mps 746 mmHg 89%
    19:00 +27°C° 1.6 mm 1 mps 746 mmHg 91%
    20:00 +27°C° 0.8 mm 2 mps 747 mmHg 91%
    21:00 +27°C° 0.8 mm 2 mps 747 mmHg 91%
    22:00 +27°C° 0.8 mm 2 mps 748 mmHg 92%
    23:00 +26°C° 2.2 mm 2 mps 748 mmHg 92%

    19 September, Thursday

    Time Temperature Precipitation Wind Pressure Humidity
    00:00 +26°C° 2.2 mm 2 mps 747 mmHg 93%
    01:00 +26°C° 2.2 mm 3 mps 747 mmHg 94%
    02:00 +26°C° 2.2 mm 2 mps 747 mmHg 94%
    03:00 +26°C° 2.2 mm 2 mps 747 mmHg 94%
    04:00 +26°C° 2.2 mm 1 mps 747 mmHg 94%
    05:00 +26°C° 1.1 mm 2 mps 747 mmHg 94%
    06:00 +26°C° 1.1 mm 2 mps 747 mmHg 93%
    07:00 +26°C° 1.1 mm 2 mps 748 mmHg 93%
    08:00 +26°C° 0.3 mm 2 mps 748 mmHg 92%
    09:00 +27°C° 0.3 mm 1 mps 748 mmHg 90%
    10:00 +27°C° 0.3 mm 1 mps 748 mmHg 88%
    11:00 +28°C° 0.1 mm 1 mps 747 mmHg 87%
    12:00 +28°C° 0.1 mm 1 mps 747 mmHg 86%
    13:00 +28°C° 0.1 mm 1 mps 746 mmHg 84%
    14:00 +28°C° 0.1 mm 1 mps 746 mmHg 84%
    15:00 +28°C° 0.1 mm 1 mps 746 mmHg 84%
    16:00 +28°C° 0.1 mm 1 mps 745 mmHg 84%
    17:00 +28°C° 0 mm 1 mps 746 mmHg 84%
    18:00 +27°C° 0 mm 1 mps 746 mmHg 85%
    19:00 +27°C° 0 mm 1 mps 747 mmHg 85%
    20:00 +27°C° 0 mm 1 mps 747 mmHg 85%
    21:00 +27°C° 0 mm 1 mps 748 mmHg 84%
    22:00 +27°C° 0 mm 1 mps 748 mmHg 84%
    23:00 +27°C° 0 mm 1 mps 748 mmHg 83%

    20 September, Friday

    Time Temperature Precipitation Wind Pressure Humidity
    00:00 +26°C° 0 mm 1 mps 747 mmHg 83%
    01:00 +26°C° 0 mm 1 mps 747 mmHg 82%
    02:00 +26°C° 0 mm 1 mps 746 mmHg 80%
    03:00 +26°C° 0 mm 1 mps 746 mmHg 79%
    04:00 +26°C° 0 mm 1 mps 746 mmHg 77%
    05:00 +27°C° 0 mm 1 mps 746 mmHg 77%
    06:00 +27°C° 0 mm 1 mps 746 mmHg 76%
    07:00 +27°C° 0 mm 1 mps 747 mmHg 75%
    08:00 +29°C° 0 mm 1 mps 747 mmHg 71%
    09:00 +30°C° 0 mm 1 mps 747 mmHg 67%
    10:00 +31°C° 0 mm 1 mps 747 mmHg 63%
    11:00 +31°C° 0.2 mm 1 mps 746 mmHg 66%
    12:00 +31°C° 0.2 mm 2 mps 746 mmHg 68%
    13:00 +31°C° 0.2 mm 2 mps 745 mmHg 71%
    14:00 +31°C° 1.2 mm 2 mps 745 mmHg 75%
    15:00 +30°C° 1.2 mm 1 mps 745 mmHg 79%
    16:00 +29°C° 1.2 mm 1 mps 745 mmHg 84%
    17:00 +29°C° 0.2 mm 1 mps 745 mmHg 84%
    18:00 +28°C° 0.2 mm 1 mps 745 mmHg 85%
    19:00 +28°C° 0.2 mm 1 mps 746 mmHg 86%
    20:00 +28°C° 0.1 mm 1 mps 746 mmHg 87%
    21:00 +27°C° 0.1 mm 1 mps 747 mmHg 88%
    22:00 +27°C° 0.1 mm 1 mps 747 mmHg 88%
    23:00 +27°C° 1 mm 2 mps 747 mmHg 90%

    21 September, Saturday

    Time Temperature Precipitation Wind Pressure Humidity
    00:00 +27°C° 1 mm 2 mps 746 mmHg 91%
    01:00 +26°C° 1 mm 2 mps 746 mmHg 92%
    02:00 +26°C° 0.3 mm 2 mps 746 mmHg 92%
    03:00 +26°C° 0.3 mm 1 mps 746 mmHg 92%
    04:00 +26°C° 0.3 mm 1 mps 745 mmHg 92%
    05:00 +26°C° 0 mm 1 mps 746 mmHg 91%
    06:00 +26°C° 0 mm 1 mps 746 mmHg 89%
    07:00 +26°C° 0 mm 1 mps 746 mmHg 88%
    08:00 +28°C° 0 mm 1 mps 747 mmHg 80%
    09:00 +30°C° 0 mm 1 mps 747 mmHg 73%
    10:00 +30°C° 0 mm 0 mps 747 mmHg 65%
    11:00 +31°C° 0.9 mm 1 mps 746 mmHg 71%
    12:00 +31°C° 0.9 mm 2 mps 746 mmHg 76%
    13:00 +30°C° 0.9 mm 2 mps 745 mmHg 82%
    14:00 +29°C° 2.5 mm 2 mps 745 mmHg 85%
    15:00 +28°C° 2.5 mm 2 mps 745 mmHg 88%
    16:00 +27°C° 2.5 mm 1 mps 744 mmHg 92%
    17:00 +27°C° 1.5 mm 1 mps 745 mmHg 92%
    18:00 +26°C° 1.5 mm 1 mps 746 mmHg 92%
    19:00 +26°C° 1.5 mm 1 mps 747 mmHg 92%
    20:00 +26°C° 1.7 mm 1 mps 747 mmHg 93%
    21:00 +26°C° 1.7 mm 1 mps 747 mmHg 94%
    22:00 +25°C° 1.7 mm 1 mps 748 mmHg 95%
    23:00 +25°C° 0.9 mm 1 mps 747 mmHg 95%
    Show more